When you browse on this site, cookies collect data to enhance your experience and personalize the content and advertising you see.
Visit our Privacy Policy to learn more. By continuing to use the site, you agree to this use of cookies and data.
  • In Hungary
  • List of Countries
  • For 7 days
  • Water Temperature
  • Satellite Maps
  • Weather Map
  • News
  • Weather Widgets
  • user-avatar
    Login

    Hourly Weather Kathua

    Today, 21 March, Thursday

    Time Temperature Precipitation Wind Pressure Humidity
    00:00 +17°C° 0 mm 2 mps 734 mmHg 42%
    01:00 +17°C° 0 mm 2 mps 734 mmHg 42%
    02:00 +16°C° 0 mm 3 mps 734 mmHg 42%
    03:00 +16°C° 0 mm 3 mps 734 mmHg 41%
    04:00 +16°C° 0 mm 3 mps 734 mmHg 40%
    05:00 +16°C° 0 mm 3 mps 734 mmHg 33%
    06:00 +18°C° 0 mm 2 mps 734 mmHg 34%
    07:00 +19°C° 0 mm 2 mps 735 mmHg 35%
    08:00 +21°C° 0 mm 2 mps 735 mmHg 36%
    09:00 +24°C° 0 mm 2 mps 735 mmHg 33%
    10:00 +26°C° 0 mm 1 mps 735 mmHg 29%
    11:00 +28°C° 0 mm 1 mps 735 mmHg 26%
    12:00 +29°C° 0 mm 1 mps 735 mmHg 25%
    13:00 +29°C° 0 mm 1 mps 735 mmHg 24%
    14:00 +29°C° 0 mm 1 mps 734 mmHg 24%
    15:00 +29°C° 0 mm 1 mps 734 mmHg 28%
    16:00 +28°C° 0 mm 1 mps 734 mmHg 33%
    17:00 +27°C° 0 mm 1 mps 734 mmHg 38%
    18:00 +25°C° 0 mm 1 mps 734 mmHg 40%
    19:00 +23°C° 0 mm 2 mps 735 mmHg 43%
    20:00 +19°C° 0 mm 2 mps 735 mmHg 46%
    21:00 +19°C° 0.1 mm 2 mps 736 mmHg 45%
    22:00 +18°C° 0.1 mm 2 mps 736 mmHg 45%
    23:00 +18°C° 0.1 mm 2 mps 737 mmHg 45%

    Tomorrow, 22 March, Friday

    Time Temperature Precipitation Wind Pressure Humidity
    00:00 +17°C° 0 mm 2 mps 736 mmHg 43%
    01:00 +17°C° 0 mm 2 mps 736 mmHg 41%
    02:00 +17°C° 0 mm 2 mps 736 mmHg 39%
    03:00 +16°C° 0 mm 2 mps 736 mmHg 37%
    04:00 +16°C° 0 mm 2 mps 736 mmHg 36%
    05:00 +16°C° 0 mm 2 mps 736 mmHg 34%
    06:00 +17°C° 0 mm 2 mps 736 mmHg 34%
    07:00 +19°C° 0 mm 2 mps 736 mmHg 34%
    08:00 +21°C° 0 mm 1 mps 736 mmHg 33%
    09:00 +23°C° 0 mm 2 mps 736 mmHg 30%
    10:00 +25°C° 0 mm 2 mps 736 mmHg 26%
    11:00 +27°C° 0 mm 2 mps 736 mmHg 22%
    12:00 +28°C° 0 mm 2 mps 736 mmHg 22%
    13:00 +28°C° 0 mm 3 mps 735 mmHg 22%
    14:00 +29°C° 0 mm 3 mps 735 mmHg 22%
    15:00 +28°C° 0 mm 3 mps 735 mmHg 27%
    16:00 +27°C° 0 mm 3 mps 734 mmHg 32%
    17:00 +26°C° 0 mm 3 mps 734 mmHg 38%
    18:00 +24°C° 0 mm 3 mps 735 mmHg 39%
    19:00 +21°C° 0 mm 2 mps 735 mmHg 41%
    20:00 +19°C° 0 mm 2 mps 736 mmHg 43%
    21:00 +18°C° 0 mm 2 mps 736 mmHg 41%
    22:00 +18°C° 0 mm 2 mps 736 mmHg 39%
    23:00 +17°C° 0 mm 2 mps 736 mmHg 38%

    Day after tomorrow, 23 March, Saturday

    Time Temperature Precipitation Wind Pressure Humidity
    00:00 +17°C° 0 mm 2 mps 736 mmHg 35%
    01:00 +17°C° 0 mm 2 mps 736 mmHg 32%
    02:00 +17°C° 0 mm 2 mps 736 mmHg 29%
    03:00 +17°C° 0 mm 2 mps 735 mmHg 28%
    04:00 +16°C° 0 mm 2 mps 735 mmHg 27%
    05:00 +16°C° 0 mm 1 mps 735 mmHg 25%
    06:00 +18°C° 0 mm 1 mps 735 mmHg 27%
    07:00 +19°C° 0 mm 1 mps 735 mmHg 29%
    08:00 +21°C° 0 mm 1 mps 735 mmHg 31%
    09:00 +23°C° 0 mm 1 mps 735 mmHg 27%
    10:00 +25°C° 0 mm 1 mps 735 mmHg 23%
    11:00 +27°C° 0 mm 1 mps 736 mmHg 18%
    12:00 +26°C° 0 mm 2 mps 735 mmHg 27%
    13:00 +23°C° 0 mm 4 mps 735 mmHg 36%
    14:00 +22°C° 0 mm 5 mps 735 mmHg 45%
    15:00 +23°C° 0 mm 4 mps 735 mmHg 44%
    16:00 +23°C° 0 mm 4 mps 734 mmHg 42%
    17:00 +24°C° 0 mm 3 mps 734 mmHg 41%
    18:00 +21°C° 0 mm 3 mps 734 mmHg 44%
    19:00 +20°C° 0 mm 2 mps 734 mmHg 47%
    20:00 +18°C° 0 mm 2 mps 735 mmHg 50%
    21:00 +17°C° 0 mm 2 mps 735 mmHg 51%
    22:00 +17°C° 0 mm 2 mps 735 mmHg 53%
    23:00 +17°C° 0 mm 2 mps 735 mmHg 54%

    24 March, Sunday

    Time Temperature Precipitation Wind Pressure Humidity
    00:00 +16°C° 0 mm 2 mps 734 mmHg 52%
    01:00 +16°C° 0 mm 2 mps 734 mmHg 49%
    02:00 +16°C° 0 mm 2 mps 734 mmHg 47%
    03:00 +16°C° 0 mm 2 mps 734 mmHg 46%
    04:00 +16°C° 0 mm 2 mps 734 mmHg 45%
    05:00 +16°C° 0 mm 2 mps 734 mmHg 44%
    06:00 +18°C° 0 mm 2 mps 734 mmHg 43%
    07:00 +20°C° 0 mm 1 mps 734 mmHg 42%
    08:00 +22°C° 0 mm 1 mps 735 mmHg 41%
    09:00 +24°C° 0 mm 2 mps 734 mmHg 37%
    10:00 +26°C° 0 mm 2 mps 734 mmHg 33%
    11:00 +28°C° 0 mm 2 mps 734 mmHg 29%
    12:00 +28°C° 0 mm 3 mps 734 mmHg 29%
    13:00 +29°C° 0 mm 3 mps 733 mmHg 30%
    14:00 +29°C° 0 mm 4 mps 733 mmHg 30%
    15:00 +28°C° 0 mm 3 mps 733 mmHg 34%
    16:00 +27°C° 0 mm 3 mps 732 mmHg 38%
    17:00 +26°C° 0 mm 2 mps 732 mmHg 42%
    18:00 +24°C° 0 mm 2 mps 733 mmHg 45%
    19:00 +23°C° 0 mm 2 mps 733 mmHg 47%
    20:00 +20°C° 0 mm 2 mps 734 mmHg 49%
    21:00 +19°C° 0 mm 2 mps 734 mmHg 47%
    22:00 +19°C° 0 mm 2 mps 734 mmHg 45%
    23:00 +19°C° 0 mm 2 mps 734 mmHg 43%

    25 March, Monday

    Time Temperature Precipitation Wind Pressure Humidity
    00:00 +19°C° 0 mm 2 mps 734 mmHg 40%
    01:00 +18°C° 0 mm 2 mps 733 mmHg 37%
    02:00 +18°C° 0 mm 2 mps 733 mmHg 34%
    03:00 +19°C° 0 mm 1 mps 733 mmHg 33%
    04:00 +19°C° 0 mm 1 mps 733 mmHg 31%
    05:00 +18°C° 0 mm 1 mps 733 mmHg 30%
    06:00 +20°C° 0 mm 1 mps 733 mmHg 30%
    07:00 +21°C° 0 mm 1 mps 733 mmHg 31%
    08:00 +23°C° 0 mm 1 mps 734 mmHg 31%
    09:00 +25°C° 0 mm 1 mps 734 mmHg 27%
    10:00 +27°C° 0 mm 1 mps 734 mmHg 23%
    11:00 +30°C° 0 mm 1 mps 734 mmHg 19%
    12:00 +30°C° 0 mm 2 mps 734 mmHg 19%
    13:00 +31°C° 0 mm 2 mps 733 mmHg 20%
    14:00 +31°C° 0 mm 3 mps 733 mmHg 20%
    15:00 +30°C° 0 mm 2 mps 733 mmHg 25%
    16:00 +29°C° 0 mm 2 mps 732 mmHg 29%
    17:00 +29°C° 0 mm 2 mps 732 mmHg 34%
    18:00 +26°C° 0 mm 2 mps 733 mmHg 37%
    19:00 +24°C° 0 mm 2 mps 733 mmHg 39%
    20:00 +21°C° 0 mm 2 mps 734 mmHg 42%
    21:00 +20°C° 0 mm 2 mps 734 mmHg 40%
    22:00 +20°C° 0 mm 2 mps 735 mmHg 38%
    23:00 +20°C° 0 mm 2 mps 735 mmHg 36%

    26 March, Tuesday

    Time Temperature Precipitation Wind Pressure Humidity
    00:00 +19°C° 0 mm 2 mps 735 mmHg 35%
    01:00 +19°C° 0 mm 2 mps 735 mmHg 33%
    02:00 +19°C° 0 mm 2 mps 735 mmHg 31%
    03:00 +19°C° 0 mm 1 mps 735 mmHg 30%
    04:00 +19°C° 0 mm 1 mps 734 mmHg 28%
    05:00 +19°C° 0 mm 1 mps 734 mmHg 27%
    06:00 +21°C° 0 mm 1 mps 734 mmHg 27%
    07:00 +22°C° 0 mm 1 mps 735 mmHg 28%
    08:00 +24°C° 0 mm 1 mps 735 mmHg 28%
    09:00 +26°C° 0 mm 1 mps 735 mmHg 26%
    10:00 +28°C° 0 mm 2 mps 734 mmHg 24%
    11:00 +29°C° 0 mm 2 mps 734 mmHg 21%
    12:00 +30°C° 0 mm 3 mps 734 mmHg 21%
    13:00 +31°C° 0 mm 3 mps 733 mmHg 21%
    14:00 +33°C° 0 mm 4 mps 733 mmHg 21%
    15:00 +31°C° 0 mm 3 mps 733 mmHg 25%
    16:00 +30°C° 0 mm 3 mps 733 mmHg 30%
    17:00 +29°C° 0 mm 3 mps 733 mmHg 34%
    18:00 +27°C° 0 mm 2 mps 733 mmHg 37%
    19:00 +24°C° 0 mm 2 mps 734 mmHg 40%
    20:00 +22°C° 0 mm 1 mps 735 mmHg 43%
    21:00 +22°C° 0 mm 1 mps 735 mmHg 42%
    22:00 +21°C° 0 mm 1 mps 736 mmHg 41%
    23:00 +21°C° 0 mm 1 mps 736 mmHg 39%
    Show more